NUSANTARA SATU

Last updated on Sun Jun 21 2026 00:03:07 GMT+0000 (Coordinated Universal Time)

1 44048U 19009A 26171.20702740 -.00000239 00000+0 00000+0 0 9991 2 44048 0.0405 136.7638 0004422 340.7115 11.4801 1.00270647 26806
UTC large
Height (km)
Speed (km/s)
/
Latitude / Longitude
Inclination (degrees)
Orbital Period (minutes)
Azimuth
Elevation
Range (km)
Doppler Factor

Next 0 passes for location: London (51.5072 / 0.1276)

No passes found over London.
NUSANTARA SATU